Location: Unspecified
(0.0000°N, 0.0000°E)
Time: 01:59:56
(UTC+00:00)

Transtage 4 - Visible Passes

Search period start: 13 June 2025 00:00
Search period end: 23 June 2025 00:00
Orbit: 2785 x 3740 km, 32.1° (Epoch: 11 June)

Date Brightness Start Highest point End Pass type
(mag) Time Alt. Az. Time Alt. Az. Time Alt. Az.
13 Jun 7.2 00:27:05 31° ENE 00:27:05 31° ENE 00:33:41 10° ENE visible
13 Jun 6.9 03:04:03 32° WNW 03:09:05 37° NNW 03:25:00 10° NE visible
13 Jun 7.1 20:41:26 10° SSW 20:50:24 25° S 20:50:24 25° S visible
13 Jun 7.5 23:59:43 22° ENE 23:59:43 22° ENE 00:03:52 10° ENE visible
14 Jun 6.7 02:36:41 39° NW 02:39:11 41° NNW 02:55:15 10° NE visible
14 Jun 7.8 05:24:44 10° NW 05:36:34 20° N 05:49:36 10° NE visible
14 Jun 7.0 20:11:40 10° SSW 20:23:29 25° SSE 20:23:29 25° SSE visible
14 Jun 7.7 23:32:20 15° ENE 23:32:20 15° ENE 23:34:01 10° ENE visible
15 Jun 6.7 02:09:18 45° NNW 02:09:22 45° NNW 02:25:32 10° NE visible
15 Jun 7.7 04:54:09 10° NW 05:05:52 20° N 05:18:49 10° NE visible
15 Jun 7.0 19:41:46 10° SSW 19:54:39 23° SSE 19:56:36 23° SSE visible
15 Jun 7.7 22:32:32 10° SW 23:04:56 - ENE 22:33:37 13° SW visible
16 Jun 6.6 01:41:54 48° N 01:41:54 48° N 01:55:52 10° NE visible
16 Jun 7.7 04:23:32 10° WNW 04:35:17 21° N 04:48:16 10° NE visible
16 Jun 7.1 19:11:43 10° SSW 19:24:20 22° SSE 19:29:45 19° SE visible
16 Jun 7.4 22:02:57 10° SW 22:37:31 - ENE 22:06:47 20° SW visible
17 Jun 6.7 01:14:28 46° N 01:14:28 46° N 01:26:14 10° NE visible
17 Jun 7.6 03:52:55 10° WNW 04:04:48 22° NNW 04:17:55 10° NNE visible
17 Jun 7.2 18:41:28 10° SSW 18:53:54 21° S 19:02:56 13° SE visible
17 Jun 7.1 21:33:23 10° SW 21:39:58 27° SSW 21:39:58 27° SSW visible
18 Jun 6.9 00:47:01 41° NNE 00:47:01 41° NNE 00:56:36 10° NE visible
18 Jun 7.5 03:23:58 13° WNW 03:34:26 24° NNW 03:47:46 10° NNE visible
18 Jun 7.3 18:11:00 10° SW 18:23:22 20° S 18:34:37 10° SE visible
18 Jun 6.9 21:03:48 10° SW 21:13:13 34° SSW 21:13:13 34° SSW visible
19 Jun 7.1 00:19:32 34° NE 00:19:32 34° NE 00:27:00 10° NE visible
19 Jun 7.4 02:56:29 18° NW 03:04:10 26° NNW 03:17:47 10° NNE visible
19 Jun 6.7 20:34:09 10° SW 20:46:30 38° S 20:46:30 38° S visible
19 Jun 7.3 23:52:01 26° NE 23:52:01 26° NE 23:57:24 10° NE visible
20 Jun 7.2 02:28:58 24° NW 02:34:01 28° NNW 02:47:55 10° NNE visible
20 Jun 7.9 05:21:29 10° NW 05:33:19 20° N 05:46:15 10° NE visible
20 Jun 6.6 20:04:28 10° SW 20:19:52 37° SSE 20:19:52 37° SSE visible
20 Jun 7.5 22:55:27 10° WSW 23:24:29 20° NE 23:27:47 10° NE visible
21 Jun 7.1 02:01:25 29° NW 02:03:58 31° NNW 02:18:11 10° NNE visible
21 Jun 7.9 04:51:23 10° NW 05:02:35 19° N 05:14:50 10° NE visible
21 Jun 6.7 19:34:42 10° SW 19:49:58 33° SSE 19:53:18 31° SE visible
21 Jun 7.3 22:25:43 10° SW 22:56:55 13° NE 22:58:10 10° NE visible
22 Jun 7.0 01:33:50 34° NNW 01:34:02 34° NNW 01:48:30 10° NE visible
22 Jun 7.8 04:21:09 10° NW 04:31:54 18° N 04:43:35 10° NE visible
22 Jun 6.8 19:04:52 10° SW 19:19:55 31° SSE 19:26:48 23° ESE visible
22 Jun 6.9 21:56:00 10° SW 22:29:18 - ENE 22:03:52 36° SW visible
